FW8346 Weather Reports


Display with metric or nautical units.
time (UTC)temp
F
wind
direction
speed
MPH
gust
MPH
rain 1hr
in
rain 24hr
in
rain mn
in
humidity
%
barometer
mb
20260905171049 69 82 0.0 3.0 0.00 0.00 0.00 92 1018.8
20260905170549 69 70 0.0 3.0 0.00 0.00 0.00 91 1018.7
20260905165540 69 29 0.0 2.0 0.00 0.00 0.00 92 1019.0
20260905165310 69 17 0.0 1.0 0.00 0.00 0.00 93 1019.1
20260905164542 69 38 0.0 0.0 0.00 0.00 0.00 92 1019.1
20260905164041 68 4 0.0 0.0 0.00 0.00 0.00 93 1019.2
20260905163540 68 39 0.0 0.0 0.00 0.00 0.00 93 1019.2
20260905163045 68 53 0.0 0.0 0.00 0.00 0.00 94 1019.2
20260905163040 68 41 0.0 0.0 0.00 0.00 0.00 93 1019.2
20260905162041 67 53 0.0 1.0 0.00 0.00 0.00 95 1019.2
20260905161540 67 53 0.0 1.0 0.00 0.00 0.00 95 1019.3
20260905161041 67 66 0.0 6.0 0.00 0.00 0.00 95 1019.3
20260905160535 67 66 1.0 6.0 0.00 0.00 0.00 95 1019.3
20260905160307 67 68 2.0 6.0 0.00 0.00 0.00 96 1019.0
20260905155536 67 82 4.0 7.0 0.00 0.00 0.00 95 1018.8
20260905155037 67 54 4.0 7.0 0.00 0.00 0.00 96 1018.7
20260905154535 66 68 4.0 6.0 0.00 0.00 0.00 96 1018.5
20260905154037 66 70 3.0 6.0 0.00 0.00 0.00 96 1018.5
20260905153806 66 72 2.0 7.0 0.00 0.00 0.00 96 1018.6
20260905153308 66 96 3.0 7.0 0.00 0.00 0.00 96 1018.6
20260905152536 66 90 2.0 6.0 0.00 0.00 0.00 96 1018.6
20260905152031 66 93 2.0 6.0 0.00 0.00 0.00 96 1018.6
20260905151531 66 71 1.0 5.0 0.00 0.00 0.00 96 1018.5
20260905151031 66 101 1.0 5.0 0.00 0.00 0.00 96 1018.5
20260905150532 66 89 1.0 4.0 0.00 0.00 0.00 96 1018.5
20260905150038 66 79 0.0 3.0 0.00 0.00 0.00 96 1018.8
20260905150033 66 132 1.0 4.0 0.00 0.00 0.00 96 1018.7
20260905145032 66 128 1.0 4.0 0.00 0.00 0.00 97 1018.8
20260905144803 66 128 2.0 6.0 0.00 0.00 0.00 97 1018.7
20260905144303 65 82 3.0 6.0 0.00 0.00 0.00 97 1018.6
20260905143529 65 81 2.0 5.0 0.00 0.00 0.00 97 1018.6
20260905143026 65 112 2.0 5.0 0.00 0.00 0.00 97 1018.6
20260905142526 65 92 3.0 6.0 0.00 0.00 0.00 97 1018.6
20260905142025 65 99 2.0 6.0 0.00 0.00 0.00 97 1018.5
20260905141527 65 97 1.0 5.0 0.00 0.00 0.00 97 1018.4
20260905141023 65 65 2.0 4.0 0.00 0.00 0.00 97 1018.4
20260905140756 65 103 2.0 4.0 0.00 0.00 0.00 97 1018.3
20260905140025 65 77 1.0 4.0 0.00 0.00 0.00 97 1018.2
20260905135521 65 96 1.0 4.0 0.00 0.00 0.00 97 1018.2
20260905135021 65 90 2.0 5.0 0.00 0.00 0.00 97 1018.0
20260905134755 64 90 2.0 5.0 0.00 0.00 0.00 97 1017.9
20260905134020 64 90 3.0 6.0 0.00 0.00 0.00 97 1017.9
20260905133521 64 71 2.0 6.0 0.00 0.00 0.00 97 1017.9
20260905133253 64 60 3.0 6.0 0.00 0.00 0.00 97 1017.7
20260905132519 64 70 4.0 7.0 0.00 0.00 0.00 97 1017.6
20260905132020 64 65 4.0 7.0 0.00 0.00 0.00 98 1017.6
20260905131514 64 76 4.0 7.0 0.00 0.00 0.00 98 1017.5
20260905131008 64 69 4.0 7.0 0.00 0.00 0.00 98 1017.4
20260905130502 64 91 5.0 7.0 0.00 0.00 0.00 98 1017.4
20260905125956 63 64 5.0 9.0 0.00 0.00 0.00 98 1017.3
20260905125722 63 70 4.0 9.0 0.00 0.00 0.00 98 1017.4
20260905124944 63 75 4.0 5.0 0.00 0.00 0.00 98 1017.5
20260905124439 63 69 3.0 6.0 0.00 0.00 0.00 98 1017.5
20260905123932 63 63 3.0 5.0 0.00 0.00 0.00 98 1017.6
20260905123426 63 83 3.0 5.0 0.00 0.00 0.00 98 1017.5
20260905122920 63 54 3.0 4.0 0.00 0.00 0.00 98 1017.6
20260905122414 63 53 2.0 5.0 0.00 0.00 0.00 98 1017.6
20260905121908 63 69 3.0 5.0 0.00 0.00 0.00 98 1017.6
20260905121401 63 68 3.0 5.0 0.00 0.00 0.00 98 1017.5
20260905120856 63 46 3.0 5.0 0.00 0.00 0.00 98 1017.6
20260905120350 63 50 1.0 4.0 0.00 0.00 0.00 98 1017.7
20260905120114 63 61 0.0 3.0 0.00 0.00 0.00 98 1017.6
20260905115337 63 44 0.0 3.0 0.00 0.00 0.00 97 1017.6
20260905114831 63 47 1.0 3.0 0.00 0.00 0.00 98 1017.5
20260905114326 63 53 1.0 3.0 0.00 0.00 0.00 98 1017.5
20260905113819 63 42 1.0 4.0 0.00 0.00 0.00 97 1017.4
20260905113314 63 64 3.0 6.0 0.00 0.00 0.00 97 1017.4
20260905112808 63 58 4.0 6.0 0.00 0.00 0.00 97 1017.2
20260905112305 63 50 3.0 6.0 0.00 0.00 0.00 97 1017.1
20260905111756 63 54 2.0 4.0 0.00 0.00 0.00 97 1017.2
20260905111250 63 65 1.0 5.0 0.00 0.00 0.00 98 1017.1
20260905110744 63 51 1.0 5.0 0.00 0.00 0.00 97 1017.2
20260905110242 63 81 2.0 5.0 0.00 0.00 0.00 97 1017.2
20260905105728 63 75 3.0 7.0 0.00 0.00 0.00 97 1017.0
20260905105453 63 53 4.0 8.0 0.00 0.00 0.00 97 1016.7
20260905104716 63 59 4.0 8.0 0.00 0.00 0.00 98 1016.6
20260905104209 63 68 5.0 7.0 0.00 0.00 0.00 98 1016.5
20260905103704 63 58 5.0 7.0 0.00 0.00 0.00 98 1016.5
20260905103158 63 44 5.0 8.0 0.00 0.00 0.00 98 1016.4
20260905102652 63 58 5.0 8.0 0.00 0.00 0.00 98 1016.3
20260905102146 62 40 4.0 7.0 0.00 0.00 0.00 98 1016.2
20260905101640 62 55 5.0 9.0 0.00 0.00 0.00 98 1016.3
20260905101134 62 68 5.0 9.0 0.00 0.00 0.00 98 1016.2
20260905100627 62 63 5.0 8.0 0.00 0.00 0.00 98 1016.0
20260905100122 62 49 6.0 8.0 0.00 0.00 0.00 98 1016.1
20260905095846 62 58 5.0 8.0 0.00 0.00 0.00 98 1016.2
20260905095110 62 70 5.0 8.0 0.00 0.00 0.00 98 1016.3
20260905094604 62 69 5.0 8.0 0.00 0.00 0.00 98 1016.3
20260905094058 62 42 5.0 8.0 0.00 0.00 0.00 98 1016.3
20260905093552 62 49 6.0 8.0 0.00 0.00 0.00 98 1016.3
20260905093314 62 40 5.0 9.0 0.00 0.00 0.00 98 1016.6
20260905093150 62 44 5.0 9.0 0.00 0.00 0.00 98 1016.4
20260905092034 62 60 5.0 8.0 0.00 0.00 0.00 98 1016.7
20260905091528 62 58 5.0 10.0 0.00 0.00 0.00 98 1016.8
20260905091021 62 77 6.0 10.0 0.00 0.00 0.00 97 1016.9
20260905090515 62 60 6.0 10.0 0.00 0.00 0.00 98 1017.0
20260905090010 62 38 6.0 10.0 0.00 0.00 0.00 97 1017.0
20260905085504 62 65 6.0 10.0 0.00 0.00 0.00 97 1017.1
20260905084957 62 49 5.0 10.0 0.00 0.00 0.00 97 1017.2
20260905084451 62 64 5.0 9.0 0.00 0.00 0.00 97 1017.2
20260905083945 62 67 6.0 9.0 0.00 0.00 0.00 97 1017.2
20260905083439 62 105 5.0 8.0 0.00 0.00 0.00 97 1017.2
20260905082934 62 79 4.0 8.0 0.00 0.00 0.00 97 1017.2
20260905082427 62 68 4.0 7.0 0.00 0.00 0.00 97 1017.2
20260905081922 62 62 4.0 6.0 0.00 0.00 0.00 97 1017.3
20260905081416 62 64 4.0 7.0 0.00 0.00 0.00 97 1017.3
20260905080910 62 81 5.0 7.0 0.00 0.00 0.00 97 1017.3
20260905080404 62 102 5.0 7.0 0.00 0.00 0.00 97 1017.2
20260905075858 62 75 4.0 7.0 0.00 0.00 0.00 97 1017.1
20260905075352 62 54 4.0 7.0 0.00 0.00 0.00 97 1017.0
20260905074846 62 57 5.0 9.0 0.00 0.00 0.00 97 1017.0
20260905074610 62 91 6.0 9.0 0.00 0.00 0.00 97 1017.0
20260905073834 62 68 5.0 8.0 0.00 0.00 0.00 97 1016.9
20260905073328 62 64 6.0 9.0 0.00 0.00 0.00 97 1016.9
20260905072548 62 34 6.0 10.0 0.00 0.00 0.00 97 1016.8
20260905072042 63 65 5.0 9.0 0.00 0.00 0.00 97 1016.8
20260905071304 63 56 4.0 8.0 0.00 0.00 0.00 97 1016.9
20260905070758 63 82 4.0 6.0 0.00 0.00 0.00 97 1016.9
20260905070252 63 98 4.0 6.0 0.00 0.00 0.00 97 1016.8
20260905065746 63 74 3.0 6.0 0.00 0.00 0.00 97 1016.7
20260905065240 63 103 4.0 9.0 0.00 0.00 0.00 97 1016.8
20260905064734 63 73 5.0 9.0 0.00 0.00 0.00 97 1016.7
20260905064228 63 80 5.0 9.0 0.00 0.00 0.00 97 1016.6
20260905063728 63 72 6.0 11.0 0.00 0.00 0.00 97 1016.7
20260905063225 63 63 6.0 11.0 0.00 0.00 0.00 97 1016.7
20260905062723 63 50 6.0 10.0 0.00 0.00 0.00 97 1016.7
20260905062454 63 69 6.0 8.0 0.00 0.00 0.00 97 1016.8
20260905061956 63 72 5.0 8.0 0.00 0.00 0.00 97 1016.7
20260905061222 63 71 5.0 10.0 0.00 0.00 0.00 97 1016.7
20260905060721 63 57 6.0 10.0 0.00 0.00 0.00 97 1016.7
20260905060226 63 54 6.0 10.0 0.00 0.00 0.00 97 1016.6
20260905060221 63 68 7.0 10.0 0.00 0.00 0.00 97 1016.7
20260905055221 63 54 6.0 10.0 0.00 0.00 0.00 97 1016.7
20260905054720 63 41 5.0 9.0 0.00 0.00 0.00 97 1016.8
20260905054451 63 53 5.0 7.0 0.00 0.00 0.00 96 1016.9
20260905053720 63 53 5.0 8.0 0.00 0.00 0.00 96 1016.9
20260905053221 63 46 5.0 8.0 0.00 0.00 0.00 96 1017.0
20260905052722 63 46 4.0 7.0 0.00 0.00 0.00 97 1017.0
20260905052216 63 54 4.0 7.0 0.00 0.00 0.00 96 1017.0
20260905051716 63 41 5.0 8.0 0.00 0.00 0.00 96 1017.0
20260905051217 63 57 5.0 10.0 0.00 0.00 0.00 96 1017.0
20260905050717 63 73 5.0 10.0 0.00 0.00 0.00 96 1016.9
20260905050217 63 61 5.0 9.0 0.00 0.00 0.00 96 1017.0
20260905045947 63 63 5.0 9.0 0.00 0.00 0.00 96 1016.9
20260905045216 63 39 5.0 8.0 0.00 0.00 0.00 96 1016.9
20260905044948 63 52 6.0 9.0 0.00 0.00 0.00 96 1016.9
20260905044218 63 67 6.0 9.0 0.00 0.00 0.00 96 1016.9
20260905043712 63 55 5.0 9.0 0.00 0.00 0.00 96 1016.9
20260905043212 63 48 5.0 9.0 0.00 0.00 0.00 96 1016.8
20260905042712 63 77 5.0 8.0 0.00 0.00 0.00 96 1016.9
20260905042212 63 79 6.0 9.0 0.00 0.00 0.00 96 1016.9
20260905041714 63 81 6.0 10.0 0.00 0.00 0.00 96 1016.8
20260905041214 63 63 5.0 10.0 0.00 0.00 0.00 96 1016.8
20260905040713 63 53 5.0 10.0 0.00 0.00 0.00 96 1016.9
20260905040212 63 62 6.0 10.0 0.00 0.00 0.00 96 1016.9
20260905035713 63 71 6.0 11.0 0.00 0.00 0.00 96 1017.0
20260905035214 63 54 7.0 11.0 0.00 0.00 0.00 96 1016.8
20260905034714 63 50 7.0 12.0 0.00 0.00 0.00 96 1016.8
20260905034212 63 63 7.0 14.0 0.00 0.00 0.00 95 1016.8
20260905033713 63 49 7.0 14.0 0.00 0.00 0.00 95 1016.7
20260905033213 64 46 7.0 12.0 0.00 0.00 0.00 95 1016.8
20260905032712 64 46 7.0 12.0 0.00 0.00 0.00 95 1016.8
20260905032213 64 68 7.0 12.0 0.00 0.00 0.00 95 1016.7
20260905031944 64 89 5.0 12.0 0.00 0.00 0.00 94 1016.6
20260905031213 64 68 5.0 8.0 0.00 0.00 0.00 95 1016.6
20260905030712 64 86 6.0 10.0 0.00 0.00 0.00 94 1016.7
20260905030212 64 44 6.0 10.0 0.00 0.00 0.00 94 1016.7
20260905025943 65 59 6.0 10.0 0.00 0.00 0.00 94 1016.8
20260905025213 65 57 7.0 11.0 0.00 0.00 0.00 94 1016.7
20260905024712 65 80 6.0 11.0 0.00 0.00 0.00 93 1016.7
20260905024214 65 60 6.0 9.0 0.00 0.00 0.00 94 1016.6
20260905023945 65 69 6.0 10.0 0.00 0.00 0.00 94 1016.5
20260905023213 65 79 6.0 10.0 0.00 0.00 0.00 94 1016.5
20260905022714 65 82 6.0 9.0 0.00 0.00 0.00 93 1016.4
20260905022209 65 58 6.0 12.0 0.00 0.00 0.00 93 1016.4
20260905021702 65 56 7.0 12.0 0.00 0.00 0.00 93 1016.4
20260905021156 65 74 8.0 13.0 0.00 0.00 0.00 94 1016.2
20260905020650 65 46 8.0 13.0 0.00 0.00 0.00 94 1016.3
20260905020145 65 53 8.0 12.0 0.00 0.00 0.00 94 1016.1
20260905015646 65 70 7.0 10.0 0.00 0.00 0.00 94 1016.1
20260905015145 65 58 7.0 10.0 0.00 0.00 0.00 94 1016.1
20260905014918 65 49 7.0 10.0 0.00 0.00 0.00 93 1016.1
20260905014416 65 63 7.0 10.0 0.00 0.00 0.00 93 1016.0
20260905013642 66 53 7.0 10.0 0.00 0.00 0.00 93 1016.1
20260905013143 66 34 7.0 10.0 0.00 0.00 0.00 93 1016.1
20260905012642 66 26 7.0 11.0 0.00 0.00 0.00 93 1016.1
20260905012141 66 55 7.0 11.0 0.00 0.00 0.00 92 1016.0
20260905011640 66 44 8.0 12.0 0.00 0.00 0.00 93 1015.8
20260905011140 66 13 7.0 12.0 0.00 0.00 0.00 92 1015.7
20260905010640 67 21 6.0 10.0 0.00 0.00 0.00 93 1015.6
20260905010138 67 58 7.0 10.0 0.00 0.00 0.00 91 1015.6
20260905005638 67 56 8.0 10.0 0.00 0.00 0.00 91 1015.6
20260905005138 67 53 7.0 10.0 0.00 0.00 0.00 92 1015.6
20260905004912 67 63 8.0 12.0 0.00 0.00 0.00 91 1015.4
20260905004637 67 57 7.0 12.0 0.00 0.00 0.00 91 1015.6
20260905003636 67 56 7.0 12.0 0.00 0.00 0.00 90 1015.5
20260905003136 67 41 7.0 12.0 0.00 0.00 0.00 90 1015.4
20260905002636 68 44 8.0 13.0 0.00 0.00 0.00 91 1015.4
20260905002136 68 68 8.0 13.0 0.00 0.00 0.00 90 1015.5
20260905001636 68 57 8.0 12.0 0.00 0.00 0.00 90 1015.5
20260905001136 68 18 8.0 11.0 0.00 0.00 0.00 90 1015.5
20260905000908 68 57 8.0 11.0 0.00 0.00 0.00 90 1015.5
20260905000136 68 56 9.0 13.0 0.00 0.00 0.00 89 1015.5
20260904235906 68 57 9.0 13.0 0.00 0.00 0.00 89 1015.6
20260904235137 68 37 9.0 13.0 0.00 0.00 0.00 89 1015.6
20260904234909 68 75 8.0 13.0 0.00 0.00 0.00 89 1015.5
20260904234138 68 70 8.0 14.0 0.00 0.00 0.00 89 1015.5
20260904233907 69 63 9.0 14.0 0.00 0.00 0.00 89 1015.5
20260904233409 69 55 8.0 14.0 0.00 0.00 0.00 88 1015.6
20260904232901 69 39 8.0 12.0 0.00 0.00 0.00 90 1015.4
20260904232125 69 27 9.0 13.0 0.00 0.00 0.00 89 1015.4
20260904231619 69 46 9.0 13.0 0.00 0.00 0.00 89 1015.5
20260904231113 69 25 9.0 12.0 0.00 0.00 0.00 88 1015.4
20260904230607 69 23 9.0 13.0 0.00 0.00 0.00 89 1015.4
20260904230101 69 11 9.0 13.0 0.00 0.00 0.00 89 1015.3
20260904225557 69 340 9.0 12.0 0.00 0.00 0.00 87 1015.1
20260904225552 69 56 9.0 13.0 0.00 0.00 0.00 87 1015.0
20260904224816 70 63 9.0 15.0 0.00 0.00 0.00 86 1015.0
20260904224037 70 62 10.0 16.0 0.00 0.00 0.00 86 1014.9
20260904223531 70 64 10.0 16.0 0.00 0.00 0.00 86 1014.8
20260904223032 71 56 9.0 15.0 0.00 0.00 0.00 85 1014.8
20260904222519 71 65 8.0 15.0 0.00 0.00 0.00 86 1014.7
20260904222013 71 70 8.0 12.0 0.00 0.00 0.00 84 1014.7
20260904221738 71 65 8.0 12.0 0.00 0.00 0.00 84 1014.6
20260904221001 71 77 8.0 13.0 0.00 0.00 0.00 85 1014.6
20260904220455 71 39 9.0 13.0 0.00 0.00 0.00 83 1014.6
20260904215949 72 43 9.0 14.0 0.00 0.00 0.00 85 1014.5
20260904215443 72 65 9.0 14.0 0.00 0.00 0.00 83 1014.5
20260904214937 73 72 8.0 14.0 0.00 0.00 0.00 82 1014.6
20260904214431 73 69 8.0 14.0 0.00 0.00 0.00 84 1014.5
20260904213925 73 49 8.0 14.0 0.00 0.00 0.00 81 1014.5
20260904213419 74 56 7.0 12.0 0.00 0.00 0.00 81 1014.4
20260904212912 74 30 7.0 11.0 0.00 0.00 0.00 83 1014.3
20260904212407 74 33 8.0 13.0 0.00 0.00 0.00 81 1014.3
20260904211901 74 40 8.0 13.0 0.00 0.00 0.00 81 1014.3
20260904211355 75 43 7.0 13.0 0.00 0.00 0.00 82 1014.3
20260904211120 75 46 7.0 13.0 0.00 0.00 0.00 81 1014.2
20260904210343 75 44 7.0 12.0 0.00 0.00 0.00 82 1014.1
20260904205837 76 48 6.0 12.0 0.00 0.00 0.00 81 1014.0
20260904205330 76 30 6.0 11.0 0.00 0.00 0.00 79 1014.1
20260904205055 76 41 6.0 11.0 0.00 0.00 0.00 81 1014.1
20260904204319 76 63 5.0 11.0 0.00 0.00 0.00 81 1014.0
20260904204043 76 75 5.0 10.0 0.00 0.00 0.00 79 1014.1
20260904203309 76 56 5.0 10.0 0.00 0.00 0.00 79 1014.1
20260904203303 76 32 5.0 9.0 0.00 0.00 0.00 80 1014.2
20260904202254 76 53 4.0 9.0 0.00 0.00 0.00 79 1014.2
20260904201749 75 21 5.0 9.0 0.00 0.00 0.00 80 1014.2
20260904201243 75 62 5.0 9.0 0.00 0.00 0.00 80 1014.0
20260904200737 75 77 5.0 9.0 0.00 0.00 0.00 81 1014.0
20260904200231 75 80 5.0 9.0 0.00 0.00 0.00 82 1014.0
20260904195725 75 47 5.0 8.0 0.00 0.00 0.00 81 1014.1
20260904195226 75 64 4.0 8.0 0.00 0.00 0.00 83 1014.1
20260904194725 75 51 4.0 8.0 0.00 0.00 0.00 79 1014.1
20260904194226 75 50 3.0 8.0 0.00 0.00 0.00 79 1014.2
20260904193727 75 51 5.0 9.0 0.00 0.00 0.00 81 1014.2
20260904193225 74 49 5.0 9.0 0.00 0.00 0.00 82 1014.0
20260904192724 74 27 5.0 9.0 0.00 0.00 0.00 82 1014.1
20260904192224 74 58 5.0 9.0 0.00 0.00 0.00 81 1014.1
20260904191725 74 55 6.0 10.0 0.00 0.00 0.00 82 1014.0
20260904191224 74 50 6.0 10.0 0.00 0.00 0.00 81 1014.0
20260904190724 74 51 5.0 9.0 0.00 0.00 0.00 80 1014.0
20260904190224 74 58 5.0 9.0 0.00 0.00 0.00 81 1014.0
20260904185956 74 353 5.0 9.0 0.00 0.00 0.00 82 1014.0
20260904185225 74 22 5.0 9.0 0.00 0.00 0.00 82 1014.0
20260904184723 74 60 5.0 8.0 0.00 0.00 0.00 83 1014.0
20260904184223 73 10 4.0 8.0 0.00 0.00 0.00 82 1014.0
20260904183955 73 14 4.0 9.0 0.00 0.00 0.00 82 1014.1
20260904183225 73 13 5.0 9.0 0.00 0.00 0.00 82 1014.0
20260904182723 73 65 5.0 7.0 0.00 0.00 0.00 83 1014.1
20260904182222 73 41 5.0 8.0 0.00 0.00 0.00 84 1014.1
20260904181722 73 76 6.0 8.0 0.00 0.00 0.00 82 1014.1
20260904181223 73 359 5.0 9.0 0.00 0.00 0.00 82 1014.2
20260904180722 73 359 4.0 9.0 0.00 0.00 0.00 83 1014.2
20260904180452 72 39 5.0 10.0 0.00 0.00 0.00 82 1014.1
20260904175722 72 43 6.0 11.0 0.00 0.00 0.00 83 1014.1
20260904175223 72 4 5.0 11.0 0.00 0.00 0.00 85 1014.0
20260904174722 72 35 5.0 11.0 0.00 0.00 0.00 86 1014.1
20260904174452 72 44 5.0 9.0 0.00 0.00 0.00 85 1014.1
20260904173956 72 26 5.0 9.0 0.00 0.00 0.00 85 1014.1
20260904173450 71 45 5.0 8.0 0.00 0.00 0.00 84 1014.2
20260904172718 71 50 4.0 8.0 0.00 0.00 0.00 86 1014.2
20260904172452 70 78 4.0 8.0 0.00 0.00 0.00 85 1014.3
20260904171717 70 56 3.0 7.0 0.00 0.00 0.00 87 1014.3